Home > Weather > Lexington > Past weeks

Flag for U.S.A. Weather for the Past 2 Weeks in Lexington, North Carolina, U.S.A.

Now
22 °F

Clear.


Feels Like: 22 °F
Forecast: 22 / 35 °F
Wind: No wind

Location: Davidson County Airport

Current Time: Feb 10, 2016 at 5:04:14 AM

Latest Report: Feb 10, 2016 at 4:35 AM


Visibility: 10 mi

Pressure: 29.86 "Hg

Humidity: 67%

Dew point: 12 °F

Location of LexingtonLocation

Historic Weather in Lexington — Graph

°F

Lexington Temperature Yesterday

Maximum temperature yesterday: 41 °F (at 11:35 AM)
Minimum temperature yesterday: 26 °F (at 11:55 PM)
Average temperature yesterday: 34 °F

High & Low Weather Summary for the Past Weeks

 TemperatureHumidityPressure
High72 °F (Feb 1, 2:55 PM)100% (Feb 2, 2:15 AM)30.44 "Hg (Feb 2, 2:15 AM)
Low21 °F (Feb 10, 3:55 AM)23% (Feb 5, 3:15 PM)29.62 "Hg (Feb 9, 3:15 AM)
Average44 °F68%30.02 "Hg
* Reported Jan 26 3:15 AM — Feb 10 3:55 AM, Lexington, Weather by CustomWeather, © 2016

Note: Actual official high and low records may vary slightly from our data, if they occured in-between our weather recording intervals... More about our weather records

Advertising

Lexington Weather History for the Previous 24 Hours

 ConditionsComfort  
Time TempWeatherWind HumidityBarometerVisibility
3:55 AM
Wed, Feb 10
21 °FClear.No wind67%29.85 "Hg10 mi
3:35 AM23 °FClear.No wind64%29.84 "Hg10 mi
3:15 AM22 °FClear.No wind70%29.84 "Hg10 mi
2:55 AM23 °FClear.No wind66%29.84 "Hg10 mi
2:35 AM22 °FClear.No wind65%29.84 "Hg10 mi
2:15 AM24 °FClear.No wind62%29.84 "Hg10 mi
1:55 AM22 °FClear.No wind66%29.84 "Hg10 mi
1:35 AM24 °FClear.No wind61%29.85 "Hg10 mi
1:15 AM24 °FClear.No wind62%29.85 "Hg10 mi
12:55 AM24 °FClear.No wind60%29.85 "Hg10 mi
12:15 AM26 °FClear.No wind55%29.84 "Hg10 mi
11:55 PM
Tue, Feb 9
26 °FClear.5 mph55%29.84 "Hg10 mi
11:15 PM27 °FClear.3 mph54%29.84 "Hg10 mi
10:55 PM27 °FClear.No wind54%29.84 "Hg10 mi
9:55 PM28 °FClear.No wind50%29.84 "Hg10 mi
9:15 PM28 °FClear.5 mph48%29.84 "Hg10 mi
8:35 PM28 °FClear.3 mph47%29.83 "Hg10 mi
8:15 PM28 °FClear.3 mph46%29.83 "Hg10 mi
7:55 PM29 °FClear.5 mph44%29.83 "Hg10 mi
7:15 PM30 °FPassing clouds.5 mph42%29.81 "Hg10 mi
6:55 PM30 °FPassing clouds.5 mph40%29.80 "Hg10 mi
6:35 PM31 °FPassing clouds.9 mph40%29.80 "Hg10 mi
6:15 PM32 °FOvercast.8 mph39%29.79 "Hg10 mi
5:55 PM32 °FOvercast.12 mph40%29.77 "Hg10 mi
5:15 PM34 °FOvercast.6 mph38%29.74 "Hg10 mi
4:15 PM35 °FMore clouds than sun.7 mph39%29.71 "Hg10 mi
3:55 PM36 °FMostly cloudy.8 mph41%29.69 "Hg10 mi
3:35 PM36 °FMore clouds than sun.6 mph38%29.68 "Hg10 mi
3:15 PM37 °FOvercast.9 mph36%29.67 "Hg10 mi
2:55 PM38 °FOvercast.5 mph35%29.66 "Hg10 mi
2:35 PM37 °FOvercast.7 mph33%29.66 "Hg10 mi
2:15 PM38 °FOvercast.8 mph35%29.66 "Hg10 mi
1:55 PM38 °FMore clouds than sun.9 mph35%29.65 "Hg10 mi
1:15 PM38 °FBroken clouds.5 mph38%29.65 "Hg10 mi
12:55 PM38 °FMore clouds than sun.9 mph38%29.66 "Hg10 mi
12:15 PM41 °FBroken clouds.10 mph40%29.67 "Hg10 mi
11:55 AM38 °FScattered clouds.7 mph43%29.68 "Hg10 mi
11:35 AM41 °FMostly cloudy.8 mph41%29.68 "Hg10 mi
10:55 AM37 °FPartly sunny.7 mph44%29.69 "Hg10 mi
10:35 AM37 °FOvercast.5 mph44%29.69 "Hg10 mi
10:15 AM37 °FOvercast.5 mph48%29.69 "Hg10 mi
9:35 AM35 °FMore clouds than sun.6 mph52%29.68 "Hg10 mi
9:15 AM35 °FMore clouds than sun.5 mph55%29.68 "Hg10 mi
8:15 AM34 °FOvercast.5 mph60%29.67 "Hg10 mi
7:55 AM33 °FOvercast.No wind64%29.67 "Hg10 mi
7:15 AM33 °FOvercast.No wind73%29.66 "Hg10 mi
6:55 AM33 °FOvercast.No wind73%29.66 "Hg10 mi
6:15 AM34 °FMostly cloudy.5 mph76%29.65 "Hg10 mi
5:15 AM34 °FMostly cloudy.No wind84%29.63 "Hg10 mi
Weather by CustomWeather, © 2016

See weather overviewHow to use our weather pages